TimeCST,TemperatureF,Dew PointF,Humidity,Sea Level PressureIn,VisibilityMPH,Wind Direction,Wind SpeedMPH,Gust SpeedMPH,PrecipitationIn,Events,Conditions,WindDirDegrees,DateUTC
12:50 AM,57.2,55.4,94,30.19,4.0,Calm,Calm,-,N/A,,Partly Cloudy,0,2012-11-20 06:50:00
1:50 AM,57.2,55.4,94,30.19,2.0,Calm,Calm,-,N/A,Fog,Shallow Fog,0,2012-11-20 07:50:00
2:50 AM,57.2,55.4,94,30.19,1.0,Calm,Calm,-,N/A,Fog,Shallow Fog,0,2012-11-20 08:50:00
3:50 AM,55.4,55.4,100,30.18,1.0,Calm,Calm,-,N/A,Fog,Shallow Fog,0,2012-11-20 09:50:00
4:50 AM,55.4,55.4,100,30.18,0.5,Calm,Calm,-,N/A,Fog,Shallow Fog,0,2012-11-20 10:50:00
5:50 AM,53.6,53.6,100,30.19,0.5,Calm,Calm,-,N/A,Fog,Shallow Fog,0,2012-11-20 11:50:00
6:50 AM,55.4,55.4,100,30.20,0.5,Calm,Calm,-,N/A,Fog,Shallow Fog,0,2012-11-20 12:50:00
7:50 AM,57.2,55.4,94,30.22,3.0,Calm,Calm,-,N/A,,Mostly Cloudy,0,2012-11-20 13:50:00
8:50 AM,60.8,59.0,94,30.23,3.0,Calm,Calm,-,N/A,,Mostly Cloudy,0,2012-11-20 14:50:00
9:50 AM,66.2,62.6,88,30.24,7.0,SE,3.5,-,N/A,,Scattered Clouds,140,2012-11-20 15:50:00
10:50 AM,71.6,62.6,73,30.23,10.0,Calm,Calm,-,N/A,,Scattered Clouds,0,2012-11-20 16:50:00
11:50 AM,75.2,62.6,65,30.20,10.0,Calm,Calm,-,N/A,,Scattered Clouds,0,2012-11-20 17:50:00
12:50 PM,78.8,59.0,51,30.18,10.0,WNW,4.6,-,N/A,,Partly Cloudy,300,2012-11-20 18:50:00
1:50 PM,80.6,57.2,45,30.15,10.0,WNW,4.6,-,N/A,,Scattered Clouds,300,2012-11-20 19:50:00
2:50 PM,80.6,57.2,45,30.14,10.0,WNW,5.8,-,N/A,,Scattered Clouds,300,2012-11-20 20:50:00
3:50 PM,84.2,59.0,42,30.13,10.0,East,5.8,-,N/A,,Scattered Clouds,100,2012-11-20 21:50:00
4:50 PM,78.8,53.6,42,30.14,10.0,ESE,4.6,-,N/A,,Partly Cloudy,110,2012-11-20 22:50:00
5:50 PM,73.4,53.6,50,30.16,10.0,South,4.6,-,N/A,,Partly Cloudy,170,2012-11-20 23:50:00
6:50 PM,68.0,57.2,68,30.18,10.0,South,5.8,-,N/A,,Scattered Clouds,180,2012-11-21 00:50:00
7:50 PM,66.2,57.2,73,30.19,10.0,South,3.5,-,N/A,,Scattered Clouds,180,2012-11-21 01:50:00
8:50 PM,64.4,57.2,77,30.20,10.0,Calm,Calm,-,N/A,,Scattered Clouds,0,2012-11-21 02:50:00
9:50 PM,62.6,57.2,82,30.21,10.0,Calm,Calm,-,N/A,,Partly Cloudy,0,2012-11-21 03:50:00
10:50 PM,62.6,57.2,82,30.21,10.0,Calm,Calm,-,N/A,,Partly Cloudy,0,2012-11-21 04:50:00
11:50 PM,60.8,57.2,88,30.22,10.0,Calm,Calm,-,N/A,,Scattered Clouds,0,2012-11-21 05:50:00